NSS-11 (26554 NORAD) Tracking and Keplerian Element Data

This shows tracking and keplerian element data for the satellite.

Feedback or suggestion? Click here.




ElementValue
Catalog26554
NameNSS-11
Epoch Orbit8917
Epoch Day34.78995704
Epoch Year2025
RAAN87.3782
Inclination0.834
Eccentricity0.000309
Argument of Perigee225.6219
Mean Anonmoly281.5681
Mean Motion1.00272356
Decay Rate2.9E-07
L11 26554U 00059A 25034.78995704 .00000029 00000+0 00000+0 0 9998
L22 26554 0.8340 87.3782 0003090 225.6219 281.5681 1.00272356 89175



Live tracking and technical data element details for NSS-11 (NORAD 26554). NSS-11 can be tracked NOW for your location showing map with azimuth and elevation plus other details from your city location.







IsCatalogInMostPopularTable: catalog: 26554, numindb: 328
Update: records affected: 1



GetName: 26554 NSS-11

Hit Count: updated at: Fri, 16 May 2025 10:40:57 GMT